Weather Roundup
Issued by NWS

Home | Current Version | Previous Version | Text Only | Print | Product List | Glossary On
Versions: 1 2 3 4 5 6 7 8 9 10 11 12 13 14 15 16 17 18 19 20 21 22 23 24 25 26 27 28 29 30 31 32 33 34 35 36 37 38 39 40 41 42 43 44 45 46 47 48 49 50
000
NZUS93 KARX 280810
HRRWXR

CURRENT HOURLY OBSERVATIONS ACROSS
MUCH OF THE UPPER MISSISSIPPI VALLEY
NATIONAL WEATHER SERVICE LA CROSSE WI
300 AM CDT MON JUL 28 2014


...SOUTHEAST MINNESOTA...


CITY           SKY/WX    TMP DP  RH WIND       PRES   REMARKS
ROCHESTER      CLOUDY    58  55  90 NW5       30.15S
ROCHESTER/MAYO CLOUDY    59  53  80 CALM      30.15R
WINONA         MOCLDY    59  55  88 NW5       30.12S
AUSTIN         CLOUDY    59  55  88 N3        30.14S
ALBERT LEA     MOCLDY    61  55  82 CALM      30.15S
DODGE CENTER   CLOUDY    59  55  88 N3        30.15R
PRESTON        CLOUDY    56  56 100 NW5       30.14S
OWATONNA       CLOUDY    61  55  82 CALM      30.15S
FARIBAULT      CLOUDY    64  55  72 CALM      30.15S
$$

...ELSEWHERE IN MINNESOTA...


CITY           SKY/WX    TMP DP  RH WIND       PRES   REMARKS
MINNEAPOLIS    CLOUDY    64  57  78 NW7       30.15R
INTNL FALLS    CLEAR     47  45  93 CALM      30.16S
DULUTH         CLOUDY    57  53  86 NW5       30.14R
RED WING       CLOUDY    61  55  82 CALM      30.12S
REDWOOD FALLS  CLOUDY    62  60  93 N5        30.17S
MANKATO        CLOUDY    63  57  82 N3        30.16S
WORTHINGTON    CLOUDY    57  54  88 NW8       30.21S
FAIRMONT       CLOUDY    61  55  82 N6        30.17R
$$

...SOUTHWEST WISCONSIN...


CITY           SKY/WX    TMP DP  RH WIND       PRES   REMARKS
LA CROSSE      CLEAR     57  52  83 N8        30.10R
PRAIRIE DU CHI CLEAR     61  52  72 N5        30.08R
BOSCOBEL       CLEAR     60  53  77 N3        30.07R
LONE ROCK      CLEAR     62  53  72 NW8       30.06R
PLATTEVILLE    CLEAR     57  54  89 N6        30.06S
FORT MC COY    CLEAR     54  51  90 N5        30.10S
CAMP DOUGLAS   CLEAR     50  50 100 W3        30.08R
VIROQUA        FAIR      55  54  99 N7        30.10R
WIS DELLS      CLEAR     55  51  85 NW6       30.05S
$$

...ELSEWHERE IN WISCONSIN...


CITY           SKY/WX    TMP DP  RH WIND       PRES   REMARKS
MILWAUKEE      PTCLDY    59  50  72 NW12      29.96R
MADISON        CLEAR     58  52  80 N9        30.03R
GREEN BAY      CLEAR     54  46  74 N9        30.01R
EAU CLAIRE     CLOUDY    59  54  83 CALM      30.11R
BLACK RVR FLS  FAIR      52  51  95 CALM      30.09S
MEDFORD        CLEAR     49  48  95 NW5       30.10R
WAUSAU         CLEAR     52  50  93 NW8       30.06R
WIS RAPIDS     CLEAR     54  51  90 MISG      30.08S
MARSHFIELD     CLEAR     53  50  89 NW10      30.09R
RICE LAKE      CLOUDY    54  53  95 CALM      30.15S
$$

...NORTHEAST IOWA...


CITY           SKY/WX    TMP DP  RH WIND       PRES   REMARKS
WATERLOO       CLEAR     58  55  90 N7        30.09R
DUBUQUE        PTCLDY    61  54  77 N14G21    30.06R
DECORAH        PTCLDY    57  54  88 N7        30.11R
MASON CITY     CLOUDY    61  57  87 N5        30.16R
CHARLES CITY   CLOUDY    59  57  94 N8        30.13S
OELWEIN        CLEAR     59  55  88 N10       30.10S
$$

...ELSEWHERE IN IOWA...


CITY           SKY/WX    TMP DP  RH WIND       PRES   REMARKS
DES MOINES     PTCLDY    63  57  81 N9        30.12R
IOWA CITY      MOCLDY    66  60  81 N9        30.06R
FORT DODGE     MOCLDY    61  55  82 N5        30.16S
MARSHALLTOWN   CLEAR     61  59  93 N10       30.10R
CEDAR RAPIDS   CLEAR     62  58  86 N10       30.06R
$$

...NORTHERN ILLINOIS...


CITY           SKY/WX    TMP DP  RH WIND       PRES   REMARKS
CHICAGO-OHARE  PTCLDY    63  50  62 N13       29.94R
DUPAGE         CLEAR     61  52  72 N12       29.95R
CHICAGO-MIDWAY PTCLDY    66  51  58 N20G25    29.93R
MOLINE         MOCLDY    66  59  78 N6        30.02R
ROCKFORD       CLEAR     61  53  75 N12       30.02R
STERLING       CLOUDY    64  57  77 N6        30.01R
PEORIA         CLEAR     65  59  81 NW8       29.98R
$$

NOTE: "FAIR" INDICATES FEW OR NO CLOUDS BELOW 12,000 FEET WITH NO
SIGNIFICANT WEATHER AND/OR OBSTRUCTIONS TO VISIBILITY. WIND
SPEEDS ARE IN MILES-PER-HOUR.



USA.gov is the U.S. government's official web portal to all federal, state and local government web resources and services.